SCP
0 0 0 0 0 0 0 0 0 0 0 0 0 0 0 0 0 0 0 0 0 0 0 0 0 0 0 0 0 0 0 0 0 0 0 0 0 0
0 0 0 0 0 0 0 0 0 0 0 0 0 0 0 0 0 0 0 0 0 0 0 0 0 0 0 0 0 0 0 0 0 0 0 0 0 0
0 0 0 0 0 0 0 0 0 0 0 0 0 0 0 0 0 0 0 0 0 0 0 0 0 0 0 0 0 0 0 0 0 0 0 0 0 0
0 0 0 0 0 0 0 0 0 0 0 0 0 0 0 0 0 0 0 0 0 0 0 0 0 0 0 0 0 0 0 0 0 0 0 0 0 0
0 0 0 0 0 0 0 0 0 0 0 0 0 0 0 0 0 0 0 0 0 0 0 0 0 0 0 0 0 0 0 0 0 0 0 0 0 0
0 0 0 0 0 0 0 0 0 0 0 0 0 0 0 0 0 0 0 0 0 0 0 0 0 0 0 0 0 0 0 0 0 0 0 0 0 0
0 0 0 0 0 0 0 0 0 0 0 0 0 0 0 0 0 0 0 0 0 0 0 0 0 0 0 0 0 0 0 0 0 0 0 0 0 0
0 0 0 0 0 0 0 0 0 0 0 0 0 0 0 0 0 0 0 0 0 0 0 0 0 0 0 0 0 0 0 0 0 0 0 0 0 0
0 0 0 0 0 0 0 0 0 0 0 0 0 0 0 0 0 0 0 0 0 0 0 0 0 0 0 0 0 0 0 0 0 0 0 0 0 0
0 0 0 0 0 0 0 0 0 0 0 0 0 0 0 0 0 0 0 0 0 0 0 0 0 0 0 0 0 0 0 0 0 0 0 0 0 0
0 0 0 0 0 0 0 0 0 0 0 0 0 0 0 0 0 0 0 0 0 0 0 0 0 0 0 0 0 0 0 0 0 0 0 0 0 0
0 0 0 0 0 0 0 0 0 0 0 0 0 0 0 0 0 0 0 0 0 0 0 0 0 0 0 0 0 0 0 0 0 0 0 0 0 0
0 0 0 0 0 0 0 0 0 0 0 0 0 0 0 0 0 0 0 0 0 0 0 0 0 0 0 0 0 0 0 0 0 0 0 0 0 0
0 0 0 0 0 0 0 0 -0 -0 0 0 0 0 0 0 0 0 0 0 0 0 0 0 0 0 0 0 0 0 0 0 0 0 0 0 0 0
0 0 0 0 0 0 0 0 0 0 0 0 0 0 0 0 0 0 0 0 0 0 0 0 0 0 0 0 0 0 0 0 0 0 0 0 0 -0
0 0 0 0 0 0 0 0 0 0 0 0 0 0 0 0 0 0 0 0 0 0 0 0 0 0 0 0 0 0 0 0 0 0 0 0 0 0
0 0 0 0 0 0 0 0 0 0 0 0 0 0 0 0 0 0 0 0 0 0 0 0 0 0 0 0 0 0 0 0 0 0 0 0 0 0
0 0 0 0 0 0 0 0 0 0 0 0 0 0 0 0 0 0 0 0 0 0 0 0 0 0 0 0 0 0 0 0 0 0 0 0 0 0
0 0 0 0 0 0 0 0 0 0 0 0 0 0 0 0 0 0 0 0 0 0 0 0 0 0 0 0 0 0 0 0 0 0 0 0 0 0
0 0 0 0 0 0 0 0 0 0 0 0 0 0 0 0 0 0 0 0 0 0 0 0 0 0 0 0 0 0 0 0 0 0 0 0 0 0
0 0 0 0 0 0 0 0 0 0 0 0 0 0 0 0 0 0 0 0 0 0 0 0 0 0 0 0 0 0 0 0 0 0 0 0 0 0
0 0 0 0 0 0 0 0 0 0 0 0 0 0 0 0 0 0 0 0 0 0 0 0 0 0 0 0 0 0 0 0 0 0 0 0 0 0
0 0 0 0 0 0 0 0 0 0 0 0 0 0 0 0 0 0 0 0 0 0 0 0 0 0 0 0 0 0 0 0 0 0 0 0 0 0
Wind_Speed
5 5 4 3 3 3 2 2 2 1 3 3 3 4 4 4 7 5 5 12 16 16 16 17 19 20 21 22 22 23 23 24 24 24 24 24 24 24
4 5 4 3 3 3 2 2 2 3 2 3 3 4 5 8 12 7 7 17 17 18 18 18 18 20 22 22 22 23 23 24 24 24 24 24 24 24
5 5 4 2 2 2 2 1 1 1 2 4 3 4 5 7 9 7 7 7 8 17 19 19 20 20 20 21 21 21 22 22 23 24 24 24 23 23
4 3 3 2 2 2 1 2 2 2 2 4 4 4 6 7 7 8 9 8 7 15 19 20 21 20 19 18 20 20 20 20 22 23 23 23 23 23
3 3 3 3 2 2 2 2 2 3 2 3 6 4 5 6 6 8 9 7 9 11 14 17 19 19 18 18 19 19 18 17 19 20 21 22 22 22
4 4 4 3 3 4 3 4 3 3 4 4 6 6 6 6 5 6 8 6 7 9 12 13 15 18 19 19 19 19 17 17 17 17 17 17 18 19
5 5 5 6 6 3 3 3 3 3 4 5 6 7 7 6 6 5 8 8 8 7 6 7 8 8 10 14 17 17 17 16 15 15 15 15 15 16
5 6 6 6 7 7 7 7 7 6 6 5 7 9 10 9 8 8 8 8 6 3 4 8 7 8 8 7 13 16 16 15 14 14 13 13 13 14
5 5 5 6 7 4 6 10 11 14 13 8 9 10 10 9 9 11 9 8 9 6 5 8 6 8 7 9 14 15 15 14 13 12 12 12 12 12
5 5 6 7 6 5 5 7 8 9 11 8 8 10 10 9 8 8 8 7 7 7 5 6 6 6 8 7 12 14 14 13 13 12 12 11 11 11
6 7 7 6 8 9 6 8 10 11 11 12 13 13 15 15 10 5 5 5 7 7 3 3 4 6 6 6 7 12 13 13 13 13 12 11 10 9
6 7 9 9 11 12 7 7 10 11 10 11 11 10 8 8 8 4 4 5 6 5 3 3 4 4 5 4 5 6 7 10 12 12 11 9 8 4
5 5 6 12 15 16 12 7 11 11 9 8 7 7 6 4 5 4 4 4 5 5 4 4 4 3 4 5 4 5 6 6 5 5 7 7 6 6
5 5 7 14 16 16 11 10 13 10 5 5 5 5 4 4 4 5 6 5 5 7 8 6 4 4 4 4 5 5 7 5 4 3 3 2 3 5
5 11 14 16 14 10 11 13 10 5 4 4 4 4 4 4 4 5 6 6 6 6 5 5 4 4 4 4 6 5 5 4 4 3 2 1 1 2
6 10 14 12 9 9 9 7 5 4 3 3 4 4 3 3 3 3 3 4 4 5 6 7 5 4 3 5 6 6 6 5 4 4 2 2 1 1
7 5 4 6 7 7 7 6 5 4 3 3 3 3 3 3 3 3 3 3 3 5 6 6 7 5 2 3 5 6 6 4 4 4 3 3 3 3
5 3 5 5 6 6 7 7 5 5 4 3 3 3 3 3 4 4 3 3 4 4 5 5 6 5 4 1 5 7 6 5 5 6 5 4 5 5
3 4 5 6 6 6 6 5 4 5 4 3 3 4 4 3 3 4 4 3 3 4 4 4 5 5 6 7 6 10 7 5 5 5 6 5 5 5
3 5 6 6 6 6 6 5 5 5 4 4 4 4 4 3 3 4 3 3 3 3 4 4 5 6 6 6 5 6 12 8 5 5 4 4 4 4
5 5 5 6 5 5 5 5 4 4 5 5 5 5 4 4 4 4 4 4 2 2 3 4 5 7 4 3 4 5 6 10 10 6 4 3 3 4
5 5 5 5 5 5 5 5 5 5 6 5 5 5 5 4 4 4 3 2 2 1 2 3 4 4 5 6 6 6 7 6 8 13 14 10 3 3
5 5 5 5 5 5 5 6 6 5 5 5 6 6 6 5 4 3 3 2 2 1 2 3 3 3 4 4 5 5 7 7 6 7 8 13 14 12
Wind_Direction
61 61 60 47 51 62 77 106 121 333 295 298 319 323 329 316 311 304 294 303 307 302 297 294 292 292 292 290 288 285 282 279 277 276 275 274 272 271
60 58 50 38 38 39 53 75 123 160 245 276 272 287 307 318 317 311 295 306 306 302 299 295 294 293 292 291 288 287 284 281 278 276 275 273 270 269
48 55 44 43 30 16 27 30 33 163 246 272 266 285 299 303 307 300 296 290 289 297 298 295 293 292 291 291 291 290 288 285 282 279 276 273 270 268
38 38 15 13 8 350 345 326 299 269 247 288 291 294 291 292 289 292 296 296 288 293 292 291 292 291 291 290 290 287 284 282 280 278 275 272 269 267
9 2 340 350 327 304 299 294 286 292 277 282 291 287 285 287 291 289 287 284 287 291 290 289 291 293 292 291 289 285 280 277 276 275 273 270 267 264
348 340 329 310 284 280 281 280 278 291 291 289 291 293 287 285 280 287 296 288 288 291 288 288 290 292 291 290 289 288 284 279 275 272 268 265 262 259
337 329 319 319 322 303 287 275 276 283 289 290 293 296 297 301 297 287 295 296 288 276 278 285 287 283 286 287 289 287 286 284 281 277 270 262 254 250
324 318 312 311 321 323 319 320 312 301 293 284 290 294 296 294 294 296 297 300 296 274 279 290 285 282 281 275 279 282 284 285 286 283 275 266 255 246
324 317 319 317 320 303 307 314 310 304 292 279 280 283 289 292 296 298 295 294 292 288 287 288 286 284 282 286 288 287 288 289 285 284 280 269 258 248
329 320 314 309 306 298 296 302 299 295 289 282 264 272 279 284 284 285 288 290 282 281 271 279 284 283 289 288 287 288 290 291 289 285 280 271 259 247
323 325 323 314 306 309 303 298 301 300 297 285 276 279 282 286 286 288 295 301 304 301 280 265 276 286 286 282 283 287 290 292 292 289 281 272 256 241
317 315 317 313 310 310 298 288 294 297 303 310 309 307 300 297 302 282 276 294 301 297 286 284 278 294 291 277 280 287 291 291 291 288 283 275 254 224
308 309 306 309 311 308 303 277 272 283 295 297 300 303 308 309 308 301 279 266 287 287 286 293 283 279 278 292 288 288 293 293 295 289 286 274 243 202
294 296 299 307 310 309 307 296 299 300 289 298 305 308 311 310 305 304 299 289 271 274 286 294 289 298 301 295 295 302 306 302 297 292 293 286 235 199
295 303 308 309 312 311 310 314 317 312 309 311 311 303 293 293 303 311 310 309 306 301 301 298 296 296 300 301 309 304 305 307 317 313 312 323 134 150
314 312 311 310 315 313 315 320 317 307 301 297 298 298 308 318 314 309 308 318 324 319 316 320 321 314 307 310 313 318 323 322 329 339 359 41 71 115
309 310 320 331 336 334 331 326 323 330 329 315 310 314 317 319 310 309 309 317 325 327 333 334 331 323 295 317 327 335 338 339 347 356 20 48 47 46
318 318 323 326 325 324 326 326 323 325 319 310 307 302 301 303 306 309 317 323 328 331 335 336 340 343 339 337 6 350 350 353 1 16 29 48 48 36
340 321 318 319 320 320 320 316 308 310 311 314 306 299 296 297 299 306 315 321 324 328 331 336 347 353 2 5 357 8 5 2 13 30 35 42 47 39
330 319 319 320 319 318 319 317 316 324 329 325 315 305 298 296 301 305 309 311 320 331 339 344 353 358 0 350 343 357 13 17 16 27 29 37 50 54
327 325 322 323 323 323 322 323 327 329 331 328 325 320 312 306 304 304 307 313 322 336 345 346 339 346 345 351 12 16 17 28 39 33 7 20 27 26
327 328 329 332 334 335 336 337 339 340 342 338 330 328 325 318 309 310 315 319 326 330 332 331 339 360 15 25 26 20 19 19 34 45 44 43 44 44
331 333 336 342 346 347 347 347 347 341 338 335 333 332 333 332 330 330 327 331 339 1 6 357 356 5 12 19 22 23 24 24 26 37 42 41 58 66